Lid_Strength_Index
0 -0 -1 -1 -1 -1 -1 -1 -0 -0 -0 -0 -1 -1 -1 -1 -1 3 6 4 1 -3 -2 1 1 4 4 5 4 5 11 13 11 10 9 7 8 6 5 7 5 4 5 4 2
-0 -0 -1 -1 -1 -1 -0 0 0 0 -0 -1 -1 -1 -1 -1 2 6 1 -3 -3 -3 1 4 5 5 7 7 6 8 11 11 8 9 9 7 8 8 8 9 9 7 4 3 3
-0 -0 -1 -1 -0 -0 -0 0 0 -0 -1 -1 -1 -1 -1 -0 5 6 -2 -2 -3 -3 1 3 4 5 8 8 8 9 10 7 7 6 5 6 7 6 8 9 9 9 6 4 4
-1 -1 -0 -0 0 0 0 0 0 -0 -1 -1 -1 -1 -1 2 10 4 -3 -3 -3 -1 2 4 5 7 8 8 7 10 7 6 6 5 6 7 6 7 6 6 5 6 7 4 5
-0 -1 -0 0 1 1 1 0 0 -0 -0 -1 -1 -0 1 5 6 2 -3 -2 0 2 4 5 7 8 9 8 7 9 7 6 6 6 6 6 7 7 6 5 4 4 5 7 8
-0 -0 0 1 1 1 1 0 0 -0 -1 -0 -0 -0 3 8 4 3 2 3 2 3 4 5 6 6 8 8 9 7 7 7 7 6 6 7 7 7 6 5 5 5 6 6 6
-0 0 0 1 1 1 1 1 1 -0 -0 -0 -0 1 4 5 4 4 3 4 3 3 4 4 4 6 7 8 6 6 9 8 7 7 7 6 8 8 6 6 6 6 6 6 6
-0 0 1 1 1 1 1 1 1 -0 0 0 -0 3 7 3 4 3 3 4 3 3 3 3 4 5 6 6 7 9 9 12 8 7 7 8 12 7 6 6 7 7 7 6 5
-0 1 1 1 1 1 1 1 1 -0 -1 -0 3 5 7 2 5 4 4 4 4 4 4 3 4 6 6 10 13 11 14 12 10 7 7 9 11 7 6 6 7 7 7 6 5
-0 0 1 1 1 1 1 1 1 1 2 1 1 8 6 7 5 4 4 4 5 5 5 6 8 10 10 13 16 14 13 12 12 9 8 10 10 8 7 7 7 7 7 6 6
-0 0 1 1 1 1 3 5 7 8 6 7 7 8 7 6 4 5 4 5 5 7 11 8 12 14 13 12 10 11 12 12 10 8 9 10 10 9 7 7 7 7 7 6 6
-0 0 1 1 1 2 4 6 6 6 8 6 6 6 6 6 7 6 5 8 9 12 10 12 14 11 10 10 10 11 12 12 10 8 10 10 11 9 8 8 7 7 7 7 6
-0 0 1 1 2 4 5 5 4 4 9 7 6 7 6 6 8 8 7 9 10 12 12 14 12 9 10 11 11 12 12 12 12 10 9 10 13 11 9 8 7 7 6 6 6
-0 0 1 1 5 5 6 3 3 4 12 10 8 6 5 6 8 6 6 8 10 11 11 12 10 10 11 11 11 14 9 9 10 13 16 11 18 13 10 10 9 8 7 6 6
0 1 1 1 7 6 5 3 4 5 18 8 8 5 6 8 7 7 6 8 11 11 13 14 12 12 12 12 10 12 9 10 10 13 14 13 16 15 11 12 10 9 7 6 5
0 1 1 4 5 5 4 3 4 12 17 10 8 9 10 8 8 7 8 8 8 11 11 12 10 11 12 10 10 9 9 11 11 13 18 14 15 16 14 12 10 8 7 6 6
0 1 2 2 7 4 4 5 14 16 9 10 10 9 10 10 10 10 10 12 14 16 16 13 12 11 10 12 10 11 13 19 18 19 20 13 15 15 11 10 10 9 8 6 6
1 1 2 2 4 5 5 9 17 11 11 8 9 10 12 11 11 10 11 13 12 13 15 16 17 13 12 12 13 13 13 19 24 22 19 13 18 14 9 8 8 7 7 6 7
2 5 5 4 3 5 8 14 13 11 9 10 10 13 13 11 11 12 13 13 13 13 16 16 15 12 12 11 12 13 15 11 16 16 19 17 13 10 9 9 8 9 7 7 7
6 7 7 5 5 6 10 11 11 8 8 10 13 12 13 12 13 13 13 11 12 11 12 14 18 13 11 11 10 13 11 15 15 21 21 17 17 16 12 11 9 10 9 8 7
7 10 7 5 5 9 13 12 9 8 8 10 11 12 11 12 12 13 12 11 10 11 12 14 16 15 13 14 14 13 14 14 14 15 19 20 17 12 11 10 10 9 9 8 7
8 13 7 4 10 12 12 11 7 8 8 9 10 9 11 11 12 12 12 11 9 11 13 13 15 17 16 13 12 13 15 15 18 18 16 16 16 9 9 8 9 9 9 8 7
10 10 7 6 14 14 13 11 9 8 9 10 10 9 9 11 12 11 11 9 10 11 12 13 15 18 18 15 14 15 13 14 15 16 17 19 17 9 8 9 9 9 9 9 8
9 14 10 9 10 14 14 12 12 8 8 9 9 9 10 11 11 12 12 10 10 9 7 10 14 16 18 16 15 16 15 14 16 19 18 17 15 11 10 9 9 9 10 8 9
8 13 10 14 12 12 13 13 12 12 8 9 10 10 10 12 12 12 11 11 10 7 11 13 16 14 14 14 14 15 15 14 16 16 18 16 15 12 9 9 8 9 9 9 9
8 10 9 11 12 12 12 13 12 10 9 10 10 9 10 12 11 12 11 12 13 11 12 13 16 15 16 13 14 15 14 14 15 15 16 15 15 12 9 8 8 8 8 9 9
4 4 8 11 13 14 14 14 12 9 8 7 8 9 10 9 9 9 9 10 10 12 13 14 15 16 18 14 15 17 15 14 14 14 14 16 13 11 10 8 8 8 7 8 9